Date String (YYYY-MM-DD hh:mm:ss) UTC,Instrument flags,Ambient pressure (hPa),Sample flow (lpm),Bypass flow (lpm),Sample temperature (°C),Ambient temperature (°C),ASC tube jacket temperature (°C),LED temperature (°C),Box temperature (°C),Sample RH (%),Span deviation,Mass concentration (μg/m³),Mass concentration (μg/m³),Mass concentration (μg/m³)
DateTimeUTC,F1_M11,P_M11,Q1_M11,Q2_M11,T1_M11,T2_M11,T3_M11,T4_M11,T5_M11,U1_M11,ZSPAN_M11,X0_M11,X2_M11,X1_M11
2022-12-04 08:00:00,,0829.4,4.99,0.00,22.3,21.3,00.0,31.1,24.1,13.7,0000.0,0015.82,0005.44,0003.93
2022-12-04 08:01:00,,0829.2,4.99,0.00,22.3,21.2,00.0,31.1,24.2,13.5,0000.0,0015.27,0005.46,0003.92
2022-12-04 08:02:00,,0829.3,5.00,0.00,22.3,21.1,00.0,31.1,24.2,13.5,0000.0,0014.66,0005.42,0003.91
2022-12-04 08:03:00,,0829.2,5.01,0.00,22.3,21.1,00.0,31.1,24.2,13.5,0000.0,0015.15,0005.39,0003.90
2022-12-04 08:04:00,,0829.4,5.00,0.00,22.3,21.1,00.0,31.1,24.2,13.5,0000.0,0015.47,0005.42,0003.90
2022-12-04 08:05:00,,0829.5,5.01,0.00,22.3,21.0,00.0,31.2,24.1,13.5,0000.0,0016.08,0005.39,0003.92
2022-12-04 08:06:00,,0829.5,5.00,0.00,22.3,21.0,00.0,31.2,24.1,13.5,0000.0,0015.80,0005.37,0003.93
2022-12-04 08:07:00,,0829.3,4.99,0.00,22.3,21.0,00.0,31.2,24.1,13.3,0000.0,0015.47,0005.40,0003.93
2022-12-04 08:08:00,,0829.3,4.99,0.00,22.3,21.0,00.0,31.2,24.1,13.3,0000.0,0015.69,0005.39,0003.93
2022-12-04 08:09:00,,0829.3,5.00,0.00,22.2,21.0,00.0,31.1,24.1,13.2,0000.0,0015.11,0005.26,0003.89
2022-12-04 08:10:00,,0829.5,5.01,0.00,22.2,21.0,00.0,31.2,24.1,13.3,0000.0,0014.96,0005.08,0003.84
2022-12-04 08:11:00,,0829.5,5.00,0.00,22.2,21.0,00.0,31.2,24.1,13.3,0000.0,0013.88,0004.94,0003.81
2022-12-04 08:12:00,,0829.5,5.01,0.00,22.2,20.9,00.0,31.2,24.1,13.3,0000.0,0014.54,0004.98,0003.82
2022-12-04 08:13:00,,0829.5,5.00,0.00,22.2,20.9,00.0,31.1,24.0,13.4,0000.0,0014.84,0005.03,0003.83
2022-12-04 08:14:00,,0829.5,4.99,0.00,22.2,20.9,00.0,31.1,23.9,13.4,0000.0,0013.88,0005.03,0003.83
2022-12-04 08:15:00,,0829.4,4.99,0.00,22.2,20.9,00.0,31.1,23.9,13.4,0000.0,0014.28,0005.11,0003.83
2022-12-04 08:16:00,,0829.3,5.00,0.00,22.2,20.9,00.0,31.1,23.9,13.5,0000.0,0014.15,0005.18,0003.82
2022-12-04 08:17:00,,0829.3,5.00,0.00,22.2,20.9,00.0,31.1,23.9,13.9,0000.0,0014.25,0005.20,0003.82
2022-12-04 08:18:00,,0829.3,5.01,0.00,22.2,20.8,00.0,31.1,23.9,13.5,0000.0,0014.10,0005.09,0003.78
2022-12-04 08:19:00,,0829.3,5.01,0.00,22.2,20.8,00.0,31.1,24.0,13.6,0000.0,0013.65,0005.05,0003.74
2022-12-04 08:20:00,,0829.2,5.00,0.00,22.2,20.8,00.0,31.1,24.0,13.6,0000.0,0013.49,0005.04,0003.69
2022-12-04 08:21:00,,0829.2,4.99,0.00,22.2,20.8,00.0,31.1,24.0,13.6,0000.0,0012.69,0004.99,0003.63
2022-12-04 08:22:00,,0829.2,5.00,0.00,22.1,20.8,00.0,31.1,23.9,13.7,0000.0,0012.55,0004.91,0003.56
2022-12-04 08:23:00,,0829.2,4.99,0.00,22.1,20.8,00.0,31.1,23.9,13.9,0000.0,0011.60,0004.74,0003.50
2022-12-04 08:24:00,,0829.2,5.00,0.00,22.1,20.8,00.0,31.1,24.0,14.3,0000.0,0011.23,0004.66,0003.44
2022-12-04 08:25:00,,0829.2,5.01,0.00,22.1,20.8,00.0,31.1,24.0,14.5,0000.0,0011.45,0004.65,0003.42
2022-12-04 08:26:00,,0829.2,5.01,0.00,22.1,20.8,00.0,31.1,24.0,14.5,0000.0,0011.27,0004.60,0003.41
2022-12-04 08:27:00,,0829.3,5.00,0.00,22.1,20.8,00.0,31.1,24.0,14.5,0000.0,0010.88,0004.50,0003.39
2022-12-04 08:28:00,,0829.4,5.00,0.00,22.1,20.8,00.0,31.1,24.0,14.4,0000.0,0011.02,0004.46,0003.35
2022-12-04 08:29:00,,0829.4,5.00,0.00,22.1,20.8,00.0,31.1,23.9,14.4,0000.0,0012.09,0004.56,0003.36
2022-12-04 08:30:00,,0829.3,5.00,0.00,22.1,20.8,00.0,31.1,23.8,14.4,0000.0,0014.05,0004.79,0003.42
2022-12-04 08:31:00,,0829.3,5.00,0.00,22.1,20.7,00.0,31.1,23.8,14.4,0000.0,0015.76,0005.09,0003.51
2022-12-04 08:32:00,,0829.3,5.00,0.00,22.1,20.7,00.0,31.1,23.7,14.4,0000.0,0017.56,0005.37,0003.59
2022-12-04 08:33:00,,0829.2,5.00,0.00,22.1,20.6,00.0,31.0,23.7,14.1,0000.0,0018.75,0005.49,0003.62
2022-12-04 08:34:00,,0829.3,5.00,0.00,22.0,20.6,00.0,31.0,23.7,14.0,0000.0,0019.30,0005.58,0003.63
2022-12-04 08:35:00,,0829.3,5.00,0.00,22.0,20.6,00.0,31.0,23.8,14.1,0000.0,0019.19,0005.62,0003.64
2022-12-04 08:36:00,,0829.3,5.01,0.00,22.1,20.8,00.0,31.0,23.9,13.9,0000.0,0018.97,0005.61,0003.62
2022-12-04 08:37:00,,0829.3,5.01,0.00,22.1,21.6,00.0,30.9,24.1,13.9,0000.0,0018.79,0005.56,0003.58
2022-12-04 08:38:00,,0829.4,5.00,0.00,22.2,22.1,00.0,31.0,24.2,14.2,0000.0,0018.70,0005.60,0003.59
2022-12-04 08:39:00,,0829.4,4.99,0.00,22.3,21.9,00.0,31.0,24.3,14.3,0000.0,0018.44,0005.68,0003.62
2022-12-04 08:40:00,,0829.3,5.00,0.00,22.3,21.7,00.0,31.1,24.2,14.0,0000.0,0018.09,0005.61,0003.63
2022-12-04 08:41:00,,0829.3,5.01,0.00,22.3,21.4,00.0,31.1,24.1,13.9,0000.0,0016.08,0005.35,0003.56
2022-12-04 08:42:00,,0829.3,5.00,0.00,22.3,21.3,00.0,31.1,24.1,13.9,0000.0,0014.36,0005.01,0003.47
2022-12-04 08:43:00,,0829.3,5.01,0.00,22.3,21.2,00.0,31.1,24.1,13.9,0000.0,0013.33,0004.78,0003.39
2022-12-04 08:44:00,,0829.3,5.00,0.00,22.2,21.1,00.0,31.1,24.1,13.9,0000.0,0012.33,0004.63,0003.35
2022-12-04 08:45:00,,0829.3,4.99,0.00,22.2,21.1,00.0,31.1,24.1,13.9,0000.0,0011.88,0004.55,0003.33
2022-12-04 08:46:00,,0829.3,5.00,0.00,22.2,21.0,00.0,31.1,24.1,14.0,0000.0,0011.90,0004.49,0003.30
2022-12-04 08:47:00,,0829.2,5.00,0.00,22.2,21.0,00.0,31.1,24.1,13.9,0000.0,0012.11,0004.46,0003.29
2022-12-04 08:48:00,,0829.2,4.99,0.00,22.2,20.9,00.0,31.1,24.1,14.0,0000.0,0012.02,0004.44,0003.29
2022-12-04 08:49:00,,0829.3,5.01,0.00,22.2,20.7,00.0,31.1,24.0,14.2,0000.0,0012.03,0004.39,0003.26
2022-12-04 08:50:00,,0829.4,5.01,0.00,22.2,20.7,00.0,31.1,24.0,14.4,0000.0,0012.99,0004.34,0003.24
2022-12-04 08:51:00,,0829.2,5.00,0.00,22.1,20.6,00.0,31.1,23.9,14.4,0000.0,0012.45,0004.33,0003.23
2022-12-04 08:52:00,,0829.2,5.00,0.00,22.1,20.7,00.0,31.1,23.9,14.3,0000.0,0013.02,0004.42,0003.22
2022-12-04 08:53:00,,0829.2,5.00,0.00,22.1,20.7,00.0,31.1,23.9,14.1,0000.0,0013.59,0004.42,0003.20
2022-12-04 08:54:00,,0829.3,5.00,0.00,22.1,20.7,00.0,31.1,23.8,14.0,0000.0,0012.74,0004.32,0003.17
2022-12-04 08:55:00,,0829.3,5.00,0.00,22.1,20.7,00.0,31.1,23.8,14.0,0000.0,0012.78,0004.27,0003.15
2022-12-04 08:56:00,,0829.3,4.99,0.00,22.1,20.7,00.0,31.1,23.8,14.0,0000.0,0012.69,0004.20,0003.13
2022-12-04 08:57:00,,0829.3,5.00,0.00,22.1,20.7,00.0,31.1,23.8,14.1,0000.0,0013.60,0004.16,0003.10
2022-12-04 08:58:00,,0829.3,5.01,0.00,22.1,20.7,00.0,31.1,23.9,14.2,0000.0,0013.75,0004.14,0003.09
2022-12-04 08:59:00,,0829.3,5.01,0.00,22.1,20.7,00.0,31.0,23.8,14.2,0000.0,0013.64,0004.09,0003.06
